Regional Weather Roundup
Issued by NWS

Home | Current Version | Previous Version | Graphics & Text | Print | Product List | Glossary On
Versions: 1 2 3 4 5 6 7 8 9 10 11 12 13 14 15 16 17 18 19 20 21 22 23 24 25 26 27 28 29 30 31 32 33 34 35 36 37 38 39 40 41 42 43 44 45 46 47 48 49 50
000
ASUS43 KMKX 310400
RWRWI

WISCONSIN REGIONAL WEATHER ROUNDUP
NATIONAL WEATHER SERVICE MILWAUKEE/SULLIVAN WI
1100 PM CDT WED JUL 30 2014

NOTE: "FAIR" INDICATES FEW OR NO CLOUDS BELOW 12,000 FEET WITH NO
SIGNIFICANT WEATHER AND/OR OBSTRUCTIONS TO VISIBILITY.

WIZ001-002-006>008-014>016-023>028-310500-
NORTHWEST WISCONSIN

CITY           SKY/WX    TMP DP  RH WIND       PRES   REMARKS
SUPERIOR ARPT  PTCLDY    66  59  78 W6        29.98S
ASHLAND        PTCLDY    61  60  97 W5        29.98S
HAYWARD        LGT RAIN  64  61  90 CALM      30.01R
SIREN          CLEAR     64  56  77 W5        30.02S
RICE LAKE      CLEAR     61  60  94 CALM      30.02F
LADYSMITH      MOCLDY    62  60  93 CALM      30.03R
EAU CLAIRE     CLEAR     62  61  96 SW5       30.01S
MENOMONIE      CLEAR     66  57  73 W5        30.02S
NEW RICHMOND   CLEAR     62  56  82 W5        30.03F
OSCEOLA        CLEAR     64  59  85 CALM      30.05S
$$

WIZ003>005-009-010-017-018-310500-
NORTH CENTRAL WISCONSIN

CITY           SKY/WX    TMP DP  RH WIND       PRES   REMARKS
WOODRUFF       CLEAR     57  49  74 CALM      30.00S
RHINELANDER    CLEAR     52  51  97 CALM      30.01S
EAGLE RIVER    FOG       53  53 100 CALM      29.99F VSB 1/4
LAND O LAKES   FOG       53  53  99 CALM      30.01S VSB 1/4
PHILLIPS       MOCLDY    59  57  93 W3        30.00F
TOMAHAWK       FOG       54  53  95 CALM      30.01S VSB 1/2
MEDFORD        LGT RAIN  60  58  91 NW3       30.03R
MERRILL        CLEAR     58  58 100 CALM      30.00S
$$

WIZ029-030-035-036-043>047-310500-
CENTRAL WISCONSIN

CITY           SKY/WX    TMP DP  RH WIND       PRES   REMARKS
WAUSAU         PTCLDY    63  59  87 N5        29.99R
MOSINEE        PTCLDY    59  59 100 W7        30.01S
MARSHFIELD     LGT RAIN  61  58  90 W6        30.02R FOG
STEVENS POINT  PTCLDY    60  58  95 CALM      30.00F
WAUPACA        PTCLDY    67  56  66 W8        29.99F
WAUTOMA        NOT AVBL
WISC RAPIDS    MOCLDY    64  59  83 W9        30.02S
CAMP DOUGLAS   NOT AVBL
$$

WIZ011>013-019>022-031-037>040-048>050-310500-
NORTHEAST WISCONSIN

CITY           SKY/WX    TMP DP  RH WIND       PRES   REMARKS
ANTIGO         CLEAR     54  53  97 CALM      30.00F
STURGEON BAY   CLOUDY    61  54  77 SW7       29.97S
GREEN BAY      MOCLDY    60  59  96 SW6       29.98F
MANITOWOC      NOT AVBL
APPLETON       PTCLDY    63  55  77 VRB5      30.00R
CLINTONVILLE   PTCLDY    57  54  88 CALM      29.99F
OSHKOSH        MOCLDY    66  55  67 SW6       29.98F
$$

WIZ032>034-041-042-053>061-310500-
SOUTHWEST WISCONSIN

CITY           SKY/WX    TMP DP  RH WIND       PRES   REMARKS
LA CROSSE      CLEAR     68  62  81 SE5       30.02S
SPARTA         CLOUDY    64  61  92 S3        30.03F
VIROQUA        FAIR      64  60  88 SW6       30.05S
BOSCOBEL       MOCLDY    62  60  93 SW3       30.04F
PRAIRIE DU CHI CLEAR     64  59  85 CALM      30.04S
PLATTEVILLE    FAIR      65  58  77 CALM      30.07S
$$

WIZ056-057-062-063-064-067-068-310500-
SOUTH CENTRAL WISCONSIN

CITY           SKY/WX    TMP DP  RH WIND       PRES   REMARKS
BARABOO/DELLS  CLEAR     60  53  77 SW3       30.02F
LONE ROCK      NOT AVBL
WATERTOWN      CLEAR     62  55  76 CALM      30.02S
MADISON        CLEAR     63  52  67 CALM      30.03F
MIDDLETON      FAIR      58  55  88 CALM      30.04F
MONROE         CLEAR     64  54  68 W7        30.05S
JANESVILLE     CLEAR     61  57  88 CALM      30.04R
$$

WIZ051-052-058>065-066-070>072-310500-
SOUTHEAST WISCONSIN

CITY           SKY/WX    TMP DP  RH WIND       PRES   REMARKS
MILWAUKEE      MOCLDY    62  54  74 S3        30.02S
WAUKESHA       CLEAR     59  52  77 SW3       30.03S
MILWAUKEE/TIMM CLEAR     61  54  77 S5        30.03R
RACINE         CLEAR     59  54  83 SW7       30.04S
BURLINGTON     CLEAR     54  52  95 CALM      30.03S
KENOSHA        CLEAR     60  56  86 S5        30.04S
FOND DU LAC    PTCLDY    63  55  75 SW6       30.00F
SHEBOYGAN      PTCLDY    57  53  86 S3        29.99F
WEST BEND      PTCLDY    63  52  67 W5        30.01S
JUNEAU         CLEAR     63  51  64 W5        30.03F
$$

LSZ147-162-310500-
LAKE SUPERIOR

STATION/POSITION TIME  TEMP    WIND        PRES    WAVE
                       AIR SEA DIR/SP/G            HT/PER
                 (UTC) (F)     (DEG/KT/KT) (MB)    (FT/S)
W MID LAKE BUOY  0250   49 43  230/  4/  6 1014.6R   1/ 4
PORT WING        0340   65     180/  3/  4 1014.9R
SAXON HARBOR     0300          180/  4/  5 1014.9R
$$

LMZ867-665-643>646-310500-
LAKE MICHIGAN

STATION/POSITION TIME  TEMP    WIND        PRES    WAVE
                       AIR SEA DIR/SP/G            HT/PER
                 (UTC) (F)     (DEG/KT/KT) (MB)    (FT/S)
N MID LAKE BUOY  0150   57 54  210/  8/  8 1014.6R   0
NORTHPORT PIER   0300   60     230/  4/  4 1014.6S
SISTER BAY       0310   63        CALM       N/A
ALGOMA LAKESHORE 0321          250/  9/ 11   N/A
KEWAUNEE LAKESHO 0300   62     250/  4/  8 1014.6F
SHEBOYGAN LAKESH 0300   63     190/  6/  7 1016.0R
PORT WASHINGTON  0300   62     220/  1/  2 1016.6S
ATWATER BUOY     0300   63     160/  8     1017.3R
MILWAUKEE LAKESH 0300   65     180/  7/  8   N/A
S MID LAKE BUOY  0250   61 61  200/  4/  6 1016.9R   0
KENOSHA   LAKESH 0300   62     200/  7/  8 1016.6R
$$

TC  - TEMPERATURE IN CELSIUS
VSB - VISIBILITY IN STATUTE MILES
WCI - WIND CHILL INDEX
HX  - HEAT INDEX




USA.gov is the U.S. government's official web portal to all federal, state and local government web resources and services.